Weather History for Grand Rapids, MN

Change the Weather History Date:

Wednesday, January 23, 2013

  Actual Average Record
Temperature  
Mean Temperature -8 °F -  
Max Temperature 1 °F 21 °F 51 °F (1942)
Min Temperature -18 °F 0 °F -43 °F (1936)
Degree Days  
Heating Degree Days 72    
Moisture  
Dew Point -12 °F    
Average Humidity 74    
Maximum Humidity 92    
Minimum Humidity 55    
Precipitation  
Precipitation 0.00 in - - ()
Sea Level Pressure  
Sea Level Pressure 30.23 in    
Wind  
Wind Speed 10 mph (NW)    
Max Wind Speed 26 mph    
Max Gust Speed 34 mph    
Visibility 7 miles    
Events      
Averages and records for this station are not official NWS values.
T = Trace of Precipitation, MM = Missing Value Source: NWS Daily Summary

Daily Weather History Graph

Daily Weather History Graph

Search for Another Location

Airport:

Trip Planner

Search our weather history database for the weather conditions in past years. The results will help you decide how hot, cold, wet, or windy it might be!

Date:

Astronomy

Jan. 23, 2013 Rise Set
Actual Time 7:49 AM CST 5:03 PM CST
Civil Twilight 7:15 AM CST 5:36 PM CST
Nautical Twilight 6:38 AM CST 6:14 PM CST
Astronomical Twilight 6:02 AM CST 6:50 PM CST
Moon 2:10 PM CST (1/23) 5:04 AM CST (1/23)
Length of Visible Light 10h 20m
Length of Day
9h 13m
Waxing Gibbous, 89% of the Moon is Illuminated
Jan 23
Waxing Gibbous
Jan 26
Full
Feb 3
Last Quarter
Feb 10
New
Feb 17
First Quarter

Hourly Weather History & Observations

Time (CST) Temp. Windchill Dew Point Humidity Pressure Visibility Wind Dir Wind Speed Gust Speed Precip Events Conditions
12:15 AM -5.8 °F -14.5 °F -9.4 °F 84% 30.09 in 10.0 mi West 3.5 mph - N/A   Overcast
12:35 AM -5.8 °F -14.5 °F -11.2 °F 77% 30.08 in 10.0 mi SW 3.5 mph - N/A   Overcast
12:55 AM -4.0 °F -16.3 °F -9.4 °F 78% 30.07 in 10.0 mi SW 5.8 mph - N/A   Overcast
1:15 AM -4.0 °F -14.6 °F -9.4 °F 78% 30.07 in 10.0 mi WSW 4.6 mph - N/A   Overcast
1:35 AM -4.0 °F -12.4 °F -9.4 °F 78% 30.07 in 10.0 mi WSW 3.5 mph - N/A   Overcast
1:55 AM -2.2 °F -12.5 °F -7.6 °F 78% 30.07 in 10.0 mi WSW 4.6 mph - N/A   Overcast
2:15 AM -2.2 °F -10.4 °F -7.6 °F 78% 30.07 in 10.0 mi WSW 3.5 mph - N/A   Overcast
2:35 AM -2.2 °F -12.5 °F -7.6 °F 78% 30.08 in 10.0 mi WSW 4.6 mph - N/A   Mostly Cloudy
2:55 AM -2.2 °F -14.2 °F -7.6 °F 78% 30.07 in 10.0 mi WSW 5.8 mph - N/A   Overcast
3:15 AM -2.2 °F -14.2 °F -5.8 °F 85% 30.07 in 10.0 mi West 5.8 mph - N/A   Overcast
3:35 AM -0.4 °F -10.4 °F -5.8 °F 78% 30.06 in 10.0 mi West 4.6 mph - N/A   Overcast
3:55 AM -0.4 °F -10.4 °F -5.8 °F 78% 30.06 in 10.0 mi West 4.6 mph - N/A   Overcast
4:15 AM -0.4 °F -8.3 °F -4.0 °F 85% 30.05 in 8.0 mi West 3.5 mph - N/A   Overcast
4:35 AM -0.4 °F -10.4 °F -5.8 °F 78% 30.05 in 9.0 mi WSW 4.6 mph - N/A   Overcast
4:55 AM -0.4 °F -10.4 °F -4.0 °F 85% 30.05 in 7.0 mi West 4.6 mph - N/A   Overcast
5:15 AM -0.4 °F -10.4 °F -4.0 °F 85% 30.04 in 6.0 mi West 4.6 mph - N/A   Overcast
5:35 AM -0.4 °F -12.0 °F -4.0 °F 85% 30.03 in 6.0 mi WSW 5.8 mph - N/A   Mostly Cloudy
5:55 AM -0.4 °F -10.4 °F -2.2 °F 92% 30.03 in 5.0 mi WSW 4.6 mph - N/A   Mostly Cloudy
6:15 AM 1.4 °F -8.3 °F -2.2 °F 85% 30.03 in 5.0 mi West 4.6 mph - N/A   Mostly Cloudy
6:35 AM 1.4 °F -9.9 °F -2.2 °F 85% 30.03 in 5.0 mi West 5.8 mph - N/A   Overcast
6:55 AM 1.4 °F -9.9 °F -0.4 °F 92% 30.03 in 10.0 mi West 5.8 mph - N/A   Overcast
7:15 AM 1.4 °F -12.5 °F -2.2 °F 85% 30.03 in 10.0 mi WNW 8.1 mph - N/A   Overcast
7:35 AM 1.4 °F -14.5 °F -2.2 °F 85% 30.03 in 2.0 mi West 10.4 mph - N/A   Overcast
7:55 AM 1.4 °F -15.3 °F -2.2 °F 85% 30.03 in 2.0 mi WNW 11.5 mph 16.1 mph N/A   Overcast
8:15 AM 1.4 °F -14.5 °F -2.2 °F 85% 30.03 in 3.0 mi WNW 10.4 mph 17.3 mph N/A   Overcast
8:35 AM 1.4 °F -17.6 °F -4.0 °F 78% 30.04 in 8.0 mi WNW 15.0 mph 21.9 mph N/A   Mostly Cloudy
8:55 AM 1.4 °F -20.5 °F -4.0 °F 78% 30.04 in 10.0 mi NW 20.7 mph 31.1 mph N/A   Partly Cloudy
9:15 AM -0.4 °F -19.9 °F -5.8 °F 78% 30.06 in 1.8 mi WNW 15.0 mph 23.0 mph N/A   Scattered Clouds
9:35 AM -0.4 °F -22.8 °F -7.6 °F 72% 30.07 in 7.0 mi NNW 20.7 mph 31.1 mph N/A   Scattered Clouds
9:55 AM -0.4 °F -21.7 °F -7.6 °F 72% 30.08 in 2.5 mi NW 18.4 mph 27.6 mph N/A   Mostly Cloudy
10:15 AM -2.2 °F -25.7 °F -9.4 °F 71% 30.10 in 3.0 mi NW 21.9 mph 26.5 mph N/A   Overcast
10:35 AM -2.2 °F -27.6 °F -9.4 °F 71% 30.11 in 2.0 mi NW 26.5 mph 31.1 mph N/A   Overcast
10:55 AM -2.2 °F -26.7 °F -11.2 °F 66% 30.13 in 4.0 mi NW 24.2 mph - N/A   Mostly Cloudy
11:15 AM -2.2 °F -27.1 °F -9.4 °F 71% 30.13 in 5.0 mi NW 25.3 mph 32.2 mph N/A   Mostly Cloudy
11:35 AM -2.2 °F -26.7 °F -13.0 °F 60% 30.15 in 3.0 mi NW 24.2 mph 32.2 mph N/A   Mostly Cloudy
11:55 AM -4.0 °F -28.6 °F -11.2 °F 71% 30.15 in 3.0 mi NW 23.0 mph 31.1 mph N/A   Overcast
12:15 PM -4.0 °F -29.1 °F -13.0 °F 65% 30.16 in 1.8 mi NW 24.2 mph 31.1 mph N/A   Overcast
12:35 PM -5.8 °F -32.0 °F -14.8 °F 65% 30.18 in 2.5 mi NNW 25.3 mph 32.2 mph N/A   Mostly Cloudy
12:55 PM -5.8 °F -32.0 °F -13.0 °F 71% 30.18 in 0.8 mi NW 25.3 mph 29.9 mph N/A   Overcast
1:15 PM -5.8 °F -31.0 °F -14.8 °F 65% 30.20 in 5.0 mi NW 23.0 mph 29.9 mph N/A   Overcast
1:35 PM -5.8 °F -31.0 °F -16.6 °F 60% 30.21 in 4.0 mi NW 23.0 mph 31.1 mph N/A   Overcast
1:55 PM -5.8 °F -31.5 °F -16.6 °F 60% 30.22 in 4.0 mi NNW 24.2 mph 34.5 mph N/A   Overcast
2:15 PM -5.8 °F -32.0 °F -16.6 °F 60% 30.24 in 3.0 mi NW 25.3 mph 32.2 mph N/A   Overcast
2:35 PM -5.8 °F -31.0 °F -16.6 °F 60% 30.25 in 5.0 mi NNW 23.0 mph 31.1 mph N/A   Mostly Cloudy
2:55 PM -5.8 °F -29.9 °F -16.6 °F 60% 30.28 in 4.0 mi NNW 20.7 mph 29.9 mph N/A   Overcast
3:15 PM -5.8 °F -29.9 °F -16.6 °F 60% 30.30 in 10.0 mi NNW 20.7 mph 25.3 mph N/A   Mostly Cloudy
3:35 PM -5.8 °F -31.0 °F -18.4 °F 55% 30.31 in 7.0 mi NNW 23.0 mph - N/A   Mostly Cloudy
3:55 PM -7.6 °F -31.7 °F -16.6 °F 65% 30.33 in 3.0 mi NNW 19.6 mph 26.5 mph N/A   Overcast
4:15 PM -7.6 °F -30.5 °F -16.6 °F 65% 30.35 in 5.0 mi NW 17.3 mph 24.2 mph N/A   Overcast
4:35 PM -7.6 °F -31.7 °F -18.4 °F 59% 30.36 in 8.0 mi NNW 19.6 mph - N/A   Mostly Cloudy
4:55 PM -9.4 °F -32.8 °F -18.4 °F 65% 30.38 in 9.0 mi NNW 17.3 mph - N/A   Mostly Cloudy
5:15 PM -9.4 °F -32.8 °F -18.4 °F 65% 30.40 in 7.0 mi NNW 17.3 mph - N/A   Mostly Cloudy
5:35 PM -9.4 °F -32.8 °F -16.6 °F 71% 30.41 in 10.0 mi NW 17.3 mph - N/A   Overcast
5:55 PM -9.4 °F -30.6 °F -20.2 °F 59% 30.42 in 10.0 mi NNW 13.8 mph - N/A   Scattered Clouds
6:15 PM -11.2 °F -34.4 °F -18.4 °F 70% 30.43 in 10.0 mi NNW 16.1 mph 21.9 mph N/A   Clear
6:35 PM -11.2 °F -33.7 °F -20.2 °F 64% 30.44 in 10.0 mi NW 15.0 mph - N/A   Clear
6:55 PM -11.2 °F -32.9 °F -20.2 °F 64% 30.44 in 10.0 mi NNW 13.8 mph - N/A   Clear
7:15 PM -11.2 °F -32.1 °F -20.2 °F 64% 30.46 in 10.0 mi NNW 12.7 mph - N/A   Clear
7:35 PM - - - N/A% 30.45 in 10.0 mi NNW 12.7 mph - N/A   Clear
7:55 PM -13.0 °F -31.3 °F -20.2 °F 70% 30.47 in 10.0 mi North 9.2 mph - N/A   Clear
8:15 PM -14.8 °F -34.6 °F -20.2 °F 77% 30.47 in 10.0 mi North 10.4 mph - N/A   Clear
8:35 PM -14.8 °F -30.8 °F -20.2 °F 77% 30.47 in 10.0 mi North 6.9 mph - N/A   Clear
8:55 PM -14.8 °F -32.2 °F -20.2 °F 77% 30.50 in 10.0 mi NW 8.1 mph - N/A   Clear
9:15 PM -14.8 °F -32.2 °F -18.4 °F 84% 30.51 in 10.0 mi NW 8.1 mph - N/A   Clear
9:35 PM -14.8 °F -30.8 °F -20.2 °F 77% 30.52 in 10.0 mi NW 6.9 mph - N/A   Clear
9:55 PM -14.8 °F -33.5 °F -20.2 °F 77% 30.52 in 10.0 mi NW 9.2 mph - N/A   Clear
10:15 PM -16.6 °F -31.3 °F -20.2 °F 84% 30.53 in 10.0 mi NNW 5.8 mph - N/A   Clear
10:35 PM -16.6 °F -32.9 °F -23.8 °F 70% 30.53 in 10.0 mi NNW 6.9 mph - N/A   Clear
10:55 PM -16.6 °F -35.7 °F -22.0 °F 76% 30.54 in 10.0 mi NNW 9.2 mph - N/A   Clear
11:15 PM -16.6 °F -35.7 °F -20.2 °F 84% 30.55 in 10.0 mi NW 9.2 mph - N/A   Clear
11:35 PM -16.6 °F -34.4 °F -22.0 °F 76% 30.56 in 10.0 mi North 8.1 mph - N/A   Clear
11:55 PM -18.4 °F -35.1 °F -23.8 °F 76% 30.57 in 10.0 mi NNW 6.9 mph - N/A   Clear